Voltar ao catálogo

KUIPER-00012

AtivoComunicaçõesLEO
NORAD 63728·PAYLOAD·🇺🇸 United States

Lançado Apr 28, 2025 de Cape Canaveral Space Force Station

Loading…

Próximas Passagens (próximas 24 horas)

TLE

AtualizadoSource: CelesTrak SupGP

Época: Sep 14, 2026, 23:22 UTC

1 63728C 25088E   26257.97407407  .00001509  00000+0  19761-3 0  2577
2 63728  51.9011 318.5876 0000323  53.0702 158.8022 14.79917701    11

Acompanhe KUIPER-00012 em tempo real com AllMySat

Download on the App Store